FW6033 Weather Reports


time (UTC)temp
F
wind
direction
speed
knots
gust
knots
rain 1hr
in
rain 24hr
in
rain mn
in
humidity
%
barometer
mb
20260906220005 80 173 8.7 26.9 0.00 0.00 0.00 22 996.7
20260906214505 79 198 7.0 18.2 0.00 0.00 0.00 23 996.9
20260906213005 78 250 8.7 18.2 0.00 0.00 0.00 23 997.0
20260906211501 78 245 5.2 10.4 0.00 0.00 0.00 24 997.1
20260906210059 78 201 5.2 15.6 0.00 0.00 0.00 24 997.4
20260906204558 79 196 7.0 12.2 0.00 0.00 0.00 24 997.5
20260906203111 78 127 1.7 13.0 0.00 0.00 0.00 27 997.6
20260906201603 79 237 2.6 7.8 0.00 0.00 0.00 27 997.9
20260906200053 79 196 6.1 20.9 0.00 0.00 0.00 26 998.1
20260906194604 80 153 3.5 10.4 0.00 0.00 0.00 27 998.3
20260906193105 80 153 4.3 9.6 0.00 0.00 0.00 26 998.5
20260906191557 79 150 5.2 10.4 0.00 0.00 0.00 27 998.8
20260906190047 78 197 2.6 13.0 0.00 0.00 0.00 29 999.0
20260906184547 76 157 2.6 12.2 0.00 0.00 0.00 30 999.3
20260906183043 79 190 2.6 7.0 0.00 0.00 0.00 28 999.5
20260906181603 80 189 1.7 9.6 0.00 0.00 0.00 27 999.9
20260906180038 78 236 4.3 10.4 0.00 0.00 0.00 28 1000.0
20260906174536 74 109 2.6 13.0 0.00 0.00 0.00 32 1000.4
20260906173032 76 204 6.1 12.2 0.00 0.00 0.00 29 1000.6
20260906171530 74 194 0.9 7.0 0.00 0.00 0.00 31 1000.9
20260906170029 72 255 6.1 13.0 0.00 0.00 0.00 32 1000.9
20260906164537 72 194 2.6 8.7 0.00 0.00 0.00 32 1001.0
20260906163027 75 171 0.9 7.8 0.00 0.00 0.00 32 1000.9
20260906161526 75 74 4.3 7.8 0.00 0.00 0.00 31 1001.2
20260906160024 74 155 0.9 3.5 0.00 0.00 0.00 32 1001.2
20260906154535 73 159 1.7 6.1 0.00 0.00 0.00 34 1001.3
20260906153021 72 149 1.7 5.2 0.00 0.00 0.00 36 1001.4
20260906151514 69 113 0.9 3.5 0.00 0.00 0.00 38 1001.4
20260906150010 67 91 1.7 3.5 0.00 0.00 0.00 40 1001.6
20260906144506 65 156 0.0 0.9 0.00 0.00 0.00 43 1001.7
20260906143024 63 155 0.0 2.6 0.00 0.00 0.00 45 1001.7
20260906141530 62 196 4.3 10.4 0.00 0.00 0.00 43 1001.7
20260906140020 61 279 11.3 13.9 0.00 0.00 0.00 43 1001.5
20260906134521 56 297 12.2 14.8 0.00 0.00 0.00 48 1001.5
20260906133014 57 278 13.0 17.4 0.00 0.00 0.00 46 1001.3
20260906131512 56 279 13.0 15.6 0.00 0.00 0.00 48 1001.2
20260906130010 55 292 12.2 14.8 0.00 0.00 0.00 50 1001.3
20260906124510 54 288 12.2 15.6 0.00 0.00 0.00 51 1001.3
20260906123011 53 285 12.2 15.6 0.00 0.00 0.00 53 1001.2
20260906121508 53 279 12.2 16.5 0.00 0.00 0.00 54 1001.0
20260906120006 52 282 12.2 15.6 0.00 0.00 0.00 57 1000.9
20260906114515 53 281 13.0 17.4 0.00 0.00 0.00 56 1001.0
20260906113007 53 282 13.0 16.5 0.00 0.00 0.00 55 1001.1
20260906111503 53 285 13.0 16.5 0.00 0.00 0.00 56 1000.9
20260906110002 55 284 13.9 19.1 0.00 0.00 0.00 53 1000.9
20260906104502 53 289 14.8 19.1 0.00 0.00 0.00 56 1000.9
20260906103101 54 288 13.0 18.2 0.00 0.00 0.00 55 1000.9
20260906101559 54 271 14.8 19.1 0.00 0.00 0.00 55 1001.0
20260906100057 54 288 13.9 18.2 0.00 0.00 0.00 55 1000.9
20260906094611 54 291 11.3 15.6 0.00 0.00 0.00 54 1000.9
20260906093127 54 254 12.2 15.6 0.00 0.00 0.00 54 1000.9
20260906091603 55 279 12.2 16.5 0.00 0.00 0.00 54 1000.9
20260906090051 55 284 10.4 13.9 0.00 0.00 0.00 54 1000.9
20260906084551 55 283 10.4 13.0 0.00 0.00 0.00 54 1001.0
20260906083050 55 265 11.3 14.8 0.00 0.00 0.00 53 1000.8
20260906081549 55 271 7.8 12.2 0.00 0.00 0.00 54 1001.2
20260906080048 54 269 7.0 9.6 0.00 0.00 0.00 56 1001.2
20260906074547 54 263 7.8 12.2 0.00 0.00 0.00 55 1001.3
20260906073043 54 278 10.4 13.0 0.00 0.00 0.00 56 1001.0
20260906071540 55 279 8.7 13.0 0.00 0.00 0.00 54 1000.9
20260906070039 56 267 8.7 14.8 0.00 0.00 0.00 53 1001.0
20260906064537 56 273 12.2 16.5 0.00 0.00 0.00 54 1000.6
20260906063036 56 281 13.0 17.4 0.00 0.00 0.00 54 1000.4
20260906061533 56 284 13.0 16.5 0.00 0.00 0.00 55 1000.3
20260906060030 56 279 12.2 15.6 0.00 0.00 0.00 55 1000.4
20260906054532 57 284 13.0 16.5 0.00 0.00 0.00 54 1000.4
20260906053029 57 284 12.2 15.6 0.00 0.00 0.00 54 1000.4
20260906051532 58 273 13.9 17.4 0.00 0.00 0.00 54 1000.5
20260906050028 57 285 12.2 16.5 0.00 0.00 0.00 55 1000.2
20260906044531 58 297 13.0 16.5 0.00 0.00 0.00 54 1000.5
20260906043027 58 274 12.2 17.4 0.00 0.00 0.00 53 1000.6
20260906041526 57 275 13.0 17.4 0.00 0.00 0.00 55 1000.7
20260906040030 57 277 13.0 18.2 0.00 0.00 0.00 55 1000.7
20260906034526 58 281 13.0 16.5 0.00 0.00 0.00 54 1000.7
20260906033036 58 307 12.2 15.6 0.00 0.00 0.00 54 1000.9
20260906031534 59 281 11.3 13.9 0.00 0.00 0.00 53 1000.7
20260906030022 60 275 10.4 13.9 0.00 0.00 0.00 51 1000.7
20260906024540 60 290 10.4 13.0 0.00 0.00 0.00 51 1000.5
20260906023025 60 286 8.7 11.3 0.00 0.00 0.00 52 1000.3
20260906021521 62 286 5.2 7.0 0.00 0.00 0.00 49 1000.0
20260906020020 63 271 5.2 7.0 0.00 0.00 0.00 48 1000.0
20260906014534 64 297 1.7 3.5 0.00 0.00 0.00 47 1000.0
20260906013036 66 141 0.9 4.3 0.00 0.00 0.00 44 1000.0
20260906011520 67 182 0.9 7.8 0.00 0.00 0.00 43 1000.0
20260906010024 68 189 0.0 1.7 0.00 0.00 0.00 41 1000.1
20260906004519 69 174 0.9 4.3 0.00 0.00 0.00 39 999.9
20260906003017 70 201 3.5 7.0 0.00 0.00 0.00 38 999.9
20260906001521 71 130 4.3 9.6 0.00 0.00 0.00 37 999.7
20260906000017 73 142 3.5 10.4 0.00 0.00 0.00 35 999.6
20260905234515 75 192 1.7 6.1 0.00 0.00 0.00 27 999.5
20260905233015 75 191 0.0 7.8 0.00 0.00 0.00 27 999.2
20260905231516 76 200 3.5 13.0 0.00 0.00 0.00 26 999.1
20260905230013 76 205 5.2 11.3 0.00 0.00 0.00 26 998.7
20260905224513 74 244 5.2 15.6 0.00 0.00 0.00 28 998.7
20260905223012 74 234 8.7 13.9 0.00 0.00 0.00 27 998.8
20260905221511 74 192 4.3 14.8 0.00 0.00 0.00 27 998.8